Location: Dürabuch
(48.2640°N, 11.2185°E)
Time: 02:14:34
(UTC+00:00)

Cosmos 1745 Rocket - Pass Details

Date: 23 May 2024
Orbit: 953 x 996 km, 83.0° (Epoch: 19 June)

Event Time Altitude Azimuth Distance (km) Brightness Sun altitude
Exits shadow 00:48:38 25° 179° (S) 1,842 4.9 -17.8°
Maximum altitude 00:52:26 79° 97° (E) 998 4.0 -17.5°
Drops below altitude 10° 00:58:45 10° 11° (N) 2,750 7.6 -17.1°
Sets 01:01:17 0° 11° (N) 3,708 8.5 -16.9°
